Regional Weather Roundup
Issued by NWS

Home | Current Version | Previous Version | Text Only | Print | Product List | Glossary On
Versions: 1 2 3 4 5 6 7 8 9 10 11 12 13 14 15 16 17 18 19 20 21 22 23 24 25 26 27 28 29 30 31 32 33 34 35 36 37 38 39 40 41 42 43 44 45 46 47 48 49 50
000
ASUS44 KEWX 262202
RWRTX
SOUTH TEXAS REGIONAL WEATHER ROUNDUP
NATIONAL WEATHER SERVICE AUSTIN/SAN ANTONIO TX
500 PM CDT MON SEP 26 2016

NOTE: "FAIR" INDICATED FEW OR NO CLOUDS BELOW 12,000 FEET WITH NO
SIGNIFICANT WEATHER AND/OR OBSTRUCTIONS TO VISIBILITY.

* - THESE STATIONS ARE NOT NWS OR FAA STATIONS...AND ARE NOT SUBJECT
    TO NWS AND FAA QUALITY CONTROL.

TXZ171-172-183>190-262300-
TEXAS HILL COUNTRY AND EDWARDS PLATEAU

CITY           SKY/WX    TMP DP  RH WIND       PRES   REMARKS
JUNCTION       CLOUDY    63  32  31 NE9       30.16S
*LLANO         CLOUDY    66  66 100 CALM      30.15F
BURNET         CLOUDY    68  60  75 N13G18    30.12F
*HORSESHOE BAY CLOUDY    67  63  87 N6        30.11F
*KERRVILLE     CLOUDY    66  63  89 N13       30.12R
*FREDERICKSBRG CLOUDY    62  59  89 N13G18    30.13R
*ROCKSPRINGS   CLOUDY    63  59  88 N10G18    30.17R
*BOERNE STAGE  CLOUDY    68  63  83 N10       30.09S
*CASTROVILLE   CLOUDY    77  66  69 NE9       30.05F
HONDO          CLOUDY    78  67  68 N14       30.05R
*UVALDE        CLOUDY    76  67  71 N9        30.05S
DEL RIO        RAIN      68  64  87 NW13      30.10R FOG
LAUGHLIN AFB   LGT RAIN  72  68  88 NE6       30.10R FOG
CARRIZO SPRGS  CLOUDY    77  72  83 N6        30.01R
*EAGLE PASS    NOT AVBL
$$

TXZ173-191>194-202-209-217>225-228-262300-
CENTRAL AND SOUTH CENTRAL TEXAS

CITY           SKY/WX    TMP DP  RH WIND       PRES   REMARKS
GEORGETOWN     CLOUDY    70  61  73 N15       30.09S
AUSTIN/BERGSTM CLOUDY    71  66  84 N13       30.06F
AUSTIN/MABRY   CLOUDY    70  65  84 N9        30.08F
*AUSTIN/EXEC   CLOUDY    70  66  88 N14       30.08S
*LAGO VISTA    CLOUDY    68  64  89 NE10G17   30.09F
SAN MARCOS     CLOUDY    70  66  88 N14       30.08F
NEW BRAUNFELS  CLOUDY    72  67  84 N13       30.04F
RANDOLPH AFB   CLOUDY    73  69  88 N13       30.05R
PT SAN ANTONIO CLOUDY    76  68  76 N13       30.02F
SAN ANTONIO    CLOUDY    73  66  78 N12       30.05S
STINSON FIELD  PTSUNNY   77  67  71 NE13      30.02R
*PLEASANTON    MOSUNNY   80  70  71 NE9G16    30.01F
*LA GRANGE     CLOUDY    78  72  82 N10       30.00F
*GIDDINGS      CLOUDY    73  68  82 N10G17    30.07F
*GONZALES      CLOUDY    77  72  84 N9        30.01F
$$

TXZ163>164-176>182-195>201-210>213-226-227-235-262300-
SOUTHEAST TEXAS

CITY           SKY/WX    TMP DP  RH WIND       PRES   REMARKS
COLLEGE STN    CLOUDY    74  70  87 N12       30.03S FOG
*BRYAN         CLOUDY    73  73 100 N13       30.05F FOG
*CALDWELL      NOT AVBL
*CROCKETT      NOT AVBL
*BRENHAM       CLOUDY    77  73  87 NW13      30.03S FOG
HUNTSVILLE     PTSUNNY   79  72  79 N10       30.01F
CONROE         MOSUNNY   84  73  69 NW10      29.98F HX  90
HOUSTON BUSH   PTSUNNY   85  72  65 N9        29.97F HX  91
HOUSTON HOBBY  CLOUDY    79  72  79 SE7       29.96R THUNDER
*HOUSTON SW AP RAIN      74  73  94 E12G24    29.98R
PEARLAND       HVY RAIN  75  72  90 S7        29.98F FOG
HOUSTON HOOKS  CLOUDY    82  73  74 N7        29.98F
ELLINGTON FLD  PTSUNNY   79  72  78 S6        29.98S
SUGAR LAND     CLOUDY    83  70  64 N10       29.96S
*HOUSTON EXEC  CLOUDY    82  72  69 N14       29.98F
*CLEVELAND MUN CLOUDY    83  74  75 N5        29.98F HX  90
*WHARTON       CLOUDY   N/A N/A N/A SE3       29.97S
*COLUMBUS      PTSUNNY   82  73  76 N8        29.99F
*EAGLE LAKE    PTCLDY    82  72  70 N12       29.97F
$$

TXZ214>216-236>238-262300-
THE UPPER TEXAS COAST

CITY           SKY/WX    TMP DP  RH WIND       PRES   REMARKS
*ORANGE        LGT RAIN  73  73 100 CALM      29.97F
PORT ARTHUR    LGT RAIN  77  74  90 N7        29.96F
GALVESTON      CLOUDY    83  75  77 NE6       29.96F HX  90
ANGLETON       PTSUNNY   80  76  87 E3        29.96S
*BAY CITY      LGT RAIN  76  75  97 CALM      29.96F
PALACIOS       LGT RAIN  76  74  93 NE7       29.95F
$$

TXZ229>234-239>247-262300-
TEXAS COASTAL BEND AND RIO GRANDE PLAINS

CITY           SKY/WX    TMP DP  RH WIND       PRES   REMARKS
VICTORIA       CLOUDY    84  73  69 N13       29.96F HX  90
*BEEVILLE      CLOUDY    80  73  77 NE13      29.98R
ROCKPORT       CLOUDY    79  73  82 N13       29.97R
*PORT ARANSAS  CLOUDY    82  74  78 E6        29.96S
*PORT LAVACA   CLOUDY    77  74  91 CALM      29.98R
*INGLESIDE     CLOUDY    81  75  82 N10       29.96S
CORPUS CHRISTI CLOUDY    80  72  76 E6        29.95F
CORPUS NAS     CLOUDY    80  78  94 E7        29.95F
*ROBSTOWN      CLOUDY    80  74  81 E6        29.96F
ALICE          LGT RAIN  74  73  97 CALM      29.97S
KINGSVILLE NAS CLOUDY    79  77  94 NE9       29.95F
COTULLA        PTSUNNY   84  71  65 E10       29.99F
*FAITH RANCH     N/A    N/A N/A N/A MISG        N/A
LAREDO         LGT RAIN  77  73  87 E9        29.99R
$$

TXZ248>255-262300-
DEEP SOUTH TEXAS

CITY           SKY/WX    TMP DP  RH WIND       PRES   REMARKS
BROWNSVILLE    CLOUDY    86  74  67 NE12      29.92S HX  94
PORT ISABEL    CLOUDY    86  72  62 NE13      29.91F HX  92
*SOUTH PADRE     N/A     84  75  74 NE12      29.92S HX  92
HARLINGEN      CLOUDY    85  70  60 NE14      29.91F
*HEBBRONVILLE  CLOUDY    78  72  82 NE9       30.00S
MCALLEN        LGT RAIN  78  74  87 NE6       29.94F FOG
*WESLACO       CLOUDY    80  71  72 NE9       29.92F
FALFURRIAS     CLOUDY    78  74  87 N7        29.95S
EDINBURG       CLOUDY    86  71  60 E12       29.94S HX  91
*ZAPATA        CLOUDY    82  73  73 N12       29.96F
$$

TXZ213>215-236>238-242>244-246-247-251-254-255-262300-
CMAN STATIONS

STATION/POSITION TIME  TEMP    WIND        PRES    WAVE
                       AIR SEA DIR/SP/G            HT/PER
                 (UTC) (F)     (DEG/KT/KT) (MB)    (FT/S)
SABINE PASS      2100   82 87   CALM  /  3 1016.0
SEA RIM ST PARK  2100   81     300/  8/ 11 1015.3
NORTH JETTY/GLS  2100   83 86   50/  5/  7   N/A
EAGLE POINT      2100   80 86   50/ 16/ 19 1014.7
MORGANS POINT    2100   74 85   50/ 11/ 14 1014.7
MISSION/ARANSAS  2100   84                 1015.0
PORT ARANSAS     2100   79 84  110/  9/  9 1014.3
MALAQUITE BEACH  2100   80 85   50/ 10/ 12 1014.4
BAFFIN BAY       2100   82 85   50/ 16/ 18 1013.8
PORT ISABEL      2100   83 87   20/  3/  8 1013.2
$$

GMZ080-GMZ150>470-262300-
OFFSHORE BUOY REPORTS

STATION/POSITION TIME  TEMP    WIND        PRES    WAVE
                       AIR SEA DIR/SP/G            HT/PER
                 (UTC) (F)     (DEG/KT/KT) (MB)    (FT/S)
20 E GALVESTON   2050   83 87   10/  2/  4 1015.1    2/ 6
90 E PT ARANSAS  2050   82 86   40/ 10/ 12 1013.8    3/ 6
35 NE PT MANSFLD 2050   80 85   30/  4/  6 1013.4    3/ 6
200 E PT ISABEL  2050   84 87  100/  8/ 10 1012.0    3/ 6
$$




USA.gov is the U.S. government's official web portal to all federal, state and local government web resources and services.